Time,TemperatureF,DewpointF,PressureIn,WindDirection,WindDirectionDegrees,WindSpeedMPH,WindSpeedGustMPH,Humidity,HourlyPrecipIn,Conditions,Clouds,dailyrainin,SoftwareType,DateUTC
2013-04-08 00:00:00,52.3,46.3,30.01,West,280,1.0,2.0,80,0.00,,,0.00,Wunderground v.1.15,2013-04-08 04:00:00,
2013-04-08 00:02:00,52.5,46.2,30.00,WSW,249,1.0,3.0,79,0.00,,,0.00,Wunderground v.1.15,2013-04-08 04:02:00,
2013-04-08 00:04:00,52.9,46.2,30.00,SW,235,1.0,3.0,78,0.00,,,0.00,Wunderground v.1.15,2013-04-08 04:04:00,
2013-04-08 00:06:00,53.3,45.9,30.01,West,269,2.0,3.0,76,0.00,,,0.00,Wunderground v.1.15,2013-04-08 04:06:00,
2013-04-08 00:12:00,55.0,45.8,30.00,SSW,209,2.0,3.0,71,0.00,,,0.00,Wunderground v.1.15,2013-04-08 04:12:00,
2013-04-08 00:17:00,56.6,45.8,30.00,West,273,3.0,4.0,67,0.00,,,0.00,Wunderground v.1.15,2013-04-08 04:17:00,
2013-04-08 00:23:00,57.8,45.7,30.00,WSW,256,2.0,6.0,64,0.00,,,0.00,Wunderground v.1.15,2013-04-08 04:23:00,
2013-04-08 00:29:00,58.8,45.8,30.01,WSW,257,2.0,6.0,62,0.00,,,0.00,Wunderground v.1.15,2013-04-08 04:29:00,
2013-04-08 00:34:00,59.4,45.5,30.01,West,274,2.0,6.0,60,0.00,,,0.00,Wunderground v.1.15,2013-04-08 04:34:00,
2013-04-08 00:39:00,59.8,45.4,30.01,SW,225,2.0,6.0,59,0.00,,,0.00,Wunderground v.1.15,2013-04-08 04:39:00,
2013-04-08 00:45:00,60.4,45.1,30.01,WSW,246,2.0,3.0,57,0.00,,,0.00,Wunderground v.1.15,2013-04-08 04:45:00,
2013-04-08 00:50:00,60.8,45.5,30.01,SSW,198,3.0,4.0,57,0.00,,,0.00,Wunderground v.1.15,2013-04-08 04:50:00,
2013-04-08 00:56:00,61.1,45.3,30.01,SW,220,3.0,4.0,56,0.00,,,0.00,Wunderground v.1.15,2013-04-08 04:56:00,
2013-04-08 01:01:00,61.3,45.5,30.01,SW,232,3.0,6.0,56,0.00,,,0.00,Wunderground v.1.15,2013-04-08 05:01:00,
2013-04-08 01:07:00,61.2,44.9,30.01,SW,230,2.0,6.0,55,0.00,,,0.00,Wunderground v.1.15,2013-04-08 05:07:00,
2013-04-08 01:13:00,61.3,45.0,30.01,SW,228,2.0,6.0,55,0.00,,,0.00,Wunderground v.1.15,2013-04-08 05:13:00,
2013-04-08 01:18:00,61.3,45.0,30.01,SSW,203,3.0,6.0,55,0.00,,,0.00,Wunderground v.1.15,2013-04-08 05:18:00,
2013-04-08 01:24:00,61.5,45.2,30.01,SSW,209,2.0,6.0,55,0.00,,,0.00,Wunderground v.1.15,2013-04-08 05:24:00,
2013-04-08 01:30:00,61.5,45.2,30.01,West,263,2.0,2.0,55,0.00,,,0.00,Wunderground v.1.15,2013-04-08 05:30:00,
2013-04-08 01:36:00,61.4,45.1,30.01,West,269,1.0,6.0,55,0.00,,,0.00,Wunderground v.1.15,2013-04-08 05:36:00,
2013-04-08 01:42:00,61.4,45.1,30.01,South,174,2.0,6.0,55,0.00,,,0.00,Wunderground v.1.15,2013-04-08 05:42:00,
2013-04-08 01:48:00,61.3,45.0,30.01,SSW,193,2.0,6.0,55,0.00,,,0.00,Wunderground v.1.15,2013-04-08 05:48:00,
2013-04-08 01:54:00,61.1,44.8,30.01,WNW,292,2.0,7.0,55,0.00,,,0.00,Wunderground v.1.15,2013-04-08 05:54:00,
2013-04-08 01:59:00,61.1,44.8,30.00,SSW,203,2.0,7.0,55,0.00,,,0.00,Wunderground v.1.15,2013-04-08 05:59:00,
2013-04-08 02:04:00,61.0,44.7,30.00,WSW,240,2.0,6.0,55,0.00,,,0.00,Wunderground v.1.15,2013-04-08 06:04:00,
2013-04-08 02:10:00,60.9,44.6,30.00,WSW,249,2.0,2.0,55,0.00,,,0.00,Wunderground v.1.15,2013-04-08 06:10:00,
2013-04-08 02:15:00,60.9,44.6,30.00,SW,235,2.0,5.0,55,0.00,,,0.00,Wunderground v.1.15,2013-04-08 06:15:00,
2013-04-08 02:20:00,60.9,44.6,30.00,SSW,203,3.0,5.0,55,0.00,,,0.00,Wunderground v.1.15,2013-04-08 06:20:00,
2013-04-08 02:26:00,61.0,44.7,30.00,WSW,253,3.0,6.0,55,0.00,,,0.00,Wunderground v.1.15,2013-04-08 06:26:00,
2013-04-08 02:31:00,61.1,44.8,30.00,WSW,248,3.0,5.0,55,0.00,,,0.00,Wunderground v.1.15,2013-04-08 06:31:00,
2013-04-08 02:37:00,61.2,44.9,30.00,WSW,257,3.0,5.0,55,0.00,,,0.00,Wunderground v.1.15,2013-04-08 06:37:00,
2013-04-08 02:42:00,61.2,44.9,30.00,West,259,4.0,5.0,55,0.00,,,0.00,Wunderground v.1.15,2013-04-08 06:42:00,
2013-04-08 02:47:00,61.2,44.9,30.00,SSE,160,3.0,5.0,55,0.00,,,0.00,Wunderground v.1.15,2013-04-08 06:47:00,
2013-04-08 02:53:00,61.1,44.8,30.00,WSW,246,2.0,5.0,55,0.00,,,0.00,Wunderground v.1.15,2013-04-08 06:53:00,
2013-04-08 02:59:00,61.0,44.7,29.99,SW,222,2.0,5.0,55,0.00,,,0.00,Wunderground v.1.15,2013-04-08 06:59:00,
2013-04-08 03:04:00,60.9,44.6,29.99,West,271,2.0,6.0,55,0.00,,,0.00,Wunderground v.1.15,2013-04-08 07:04:00,
2013-04-08 03:10:00,60.9,44.6,30.00,West,274,2.0,5.0,55,0.00,,,0.00,Wunderground v.1.15,2013-04-08 07:10:00,
2013-04-08 03:16:00,60.9,45.1,30.00,SW,228,2.0,5.0,56,0.00,,,0.00,Wunderground v.1.15,2013-04-08 07:16:00,
2013-04-08 03:21:00,60.9,44.6,30.00,WSW,248,1.0,5.0,55,0.00,,,0.00,Wunderground v.1.15,2013-04-08 07:21:00,
2013-04-08 03:27:00,60.8,45.0,30.00,WSW,246,2.0,7.0,56,0.00,,,0.00,Wunderground v.1.15,2013-04-08 07:27:00,
2013-04-08 03:32:00,60.8,45.0,30.00,WSW,257,3.0,7.0,56,0.00,,,0.00,Wunderground v.1.15,2013-04-08 07:32:00,
2013-04-08 03:38:00,60.8,45.0,30.00,WSW,257,2.0,7.0,56,0.00,,,0.00,Wunderground v.1.15,2013-04-08 07:38:00,
2013-04-08 03:43:00,60.7,44.9,29.99,West,267,2.0,5.0,56,0.00,,,0.00,Wunderground v.1.15,2013-04-08 07:43:00,
2013-04-08 03:49:00,60.5,44.7,30.00,WSW,240,3.0,5.0,56,0.00,,,0.00,Wunderground v.1.15,2013-04-08 07:49:00,
2013-04-08 03:55:00,60.3,45.0,30.00,West,273,3.0,5.0,57,0.00,,,0.00,Wunderground v.1.15,2013-04-08 07:55:00,
2013-04-08 04:01:00,60.2,44.9,30.00,WSW,247,2.0,5.0,57,0.00,,,0.00,Wunderground v.1.15,2013-04-08 08:01:00,
2013-04-08 04:07:00,60.1,44.8,30.00,WSW,240,3.0,5.0,57,0.00,,,0.00,Wunderground v.1.15,2013-04-08 08:07:00,
2013-04-08 04:12:00,60.1,44.8,30.00,WSW,252,3.0,5.0,57,0.00,,,0.00,Wunderground v.1.15,2013-04-08 08:12:00,
2013-04-08 04:17:00,60.0,44.7,30.00,West,272,3.0,5.0,57,0.00,,,0.00,Wunderground v.1.15,2013-04-08 08:17:00,
2013-04-08 04:23:00,59.8,44.5,30.00,West,265,2.0,6.0,57,0.00,,,0.00,Wunderground v.1.15,2013-04-08 08:23:00,
2013-04-08 04:28:00,59.7,44.9,30.00,West,262,3.0,6.0,58,0.00,,,0.00,Wunderground v.1.15,2013-04-08 08:28:00,
2013-04-08 04:34:00,59.6,44.8,30.00,SSW,209,2.0,4.0,58,0.00,,,0.00,Wunderground v.1.15,2013-04-08 08:34:00,
2013-04-08 04:39:00,59.4,44.6,30.00,SSW,211,2.0,4.0,58,0.00,,,0.00,Wunderground v.1.15,2013-04-08 08:39:00,
2013-04-08 04:44:00,59.4,44.6,30.00,SW,214,2.0,7.0,58,0.00,,,0.00,Wunderground v.1.15,2013-04-08 08:44:00,
2013-04-08 04:50:00,59.3,44.5,30.00,West,265,2.0,4.0,58,0.00,,,0.00,Wunderground v.1.15,2013-04-08 08:50:00,
2013-04-08 04:56:00,59.2,44.4,30.00,West,278,1.0,4.0,58,0.00,,,0.00,Wunderground v.1.15,2013-04-08 08:56:00,
2013-04-08 05:01:00,59.1,45.7,30.00,North,353,1.0,4.0,61,0.00,,,0.00,Wunderground v.1.15,2013-04-08 09:01:00,
2013-04-08 05:06:00,58.6,46.0,30.00,North,3,1.0,4.0,63,0.00,,,0.00,Wunderground v.1.15,2013-04-08 09:06:00,
2013-04-08 05:12:00,57.9,45.8,30.00,ESE,122,1.0,2.0,64,0.00,,,0.00,Wunderground v.1.15,2013-04-08 09:12:00,
2013-04-08 05:18:00,57.4,45.7,30.01,SE,124,1.0,3.0,65,0.00,,,0.00,Wunderground v.1.15,2013-04-08 09:18:00,
2013-04-08 05:24:00,57.1,45.8,30.00,SE,124,1.0,2.0,66,0.00,,,0.00,Wunderground v.1.15,2013-04-08 09:24:00,
2013-04-08 05:29:00,56.8,45.6,30.00,SE,124,0.0,2.0,66,0.00,,,0.00,Wunderground v.1.15,2013-04-08 09:29:00,
2013-04-08 05:34:00,56.6,45.4,30.01,SW,222,0.0,2.0,66,0.00,,,0.00,Wunderground v.1.15,2013-04-08 09:34:00,
2013-04-08 05:40:00,56.4,44.8,30.01,SW,222,0.0,2.0,65,0.00,,,0.00,Wunderground v.1.15,2013-04-08 09:40:00,
2013-04-08 05:46:00,56.2,44.6,30.01,SW,222,0.0,2.0,65,0.00,,,0.00,Wunderground v.1.15,2013-04-08 09:46:00,
2013-04-08 05:51:00,56.1,44.5,30.01,SW,222,0.0,2.0,65,0.00,,,0.00,Wunderground v.1.15,2013-04-08 09:51:00,
2013-04-08 05:57:00,55.9,44.3,30.01,SW,222,0.0,2.0,65,0.00,,,0.00,Wunderground v.1.15,2013-04-08 09:57:00,
2013-04-08 06:03:00,55.9,44.3,30.01,SW,222,0.0,2.0,65,0.00,,,0.00,Wunderground v.1.15,2013-04-08 10:03:00,
2013-04-08 06:08:00,55.8,46.2,30.02,SW,222,1.0,2.0,70,0.00,,,0.00,Wunderground v.1.15,2013-04-08 10:08:00,
2013-04-08 06:14:00,55.6,46.0,30.02,SW,222,1.0,2.0,70,0.00,,,0.00,Wunderground v.1.15,2013-04-08 10:14:00,
2013-04-08 06:20:00,55.3,46.1,30.02,SW,222,0.0,0.0,71,0.00,,,0.00,Wunderground v.1.15,2013-04-08 10:20:00,
2013-04-08 06:25:00,55.1,45.9,30.02,SW,222,0.0,0.0,71,0.00,,,0.00,Wunderground v.1.15,2013-04-08 10:25:00,
2013-04-08 06:31:00,54.7,46.2,30.02,SW,222,0.0,2.0,73,0.00,,,0.00,Wunderground v.1.15,2013-04-08 10:31:00,
2013-04-08 06:37:00,54.4,46.3,30.03,SW,222,1.0,2.0,74,0.00,,,0.00,Wunderground v.1.15,2013-04-08 10:37:00,
2013-04-08 06:43:00,54.1,46.0,30.03,SW,222,0.0,1.0,74,0.00,,,0.00,Wunderground v.1.15,2013-04-08 10:43:00,
2013-04-08 06:48:00,53.8,46.1,30.03,SW,222,0.0,1.0,75,0.00,,,0.00,Wunderground v.1.15,2013-04-08 10:48:00,
2013-04-08 06:54:00,53.5,45.4,30.03,SW,222,0.0,0.0,74,0.00,,,0.00,Wunderground v.1.15,2013-04-08 10:54:00,
2013-04-08 07:00:00,53.2,45.5,30.03,SW,222,1.0,1.0,75,0.00,,,0.00,Wunderground v.1.15,2013-04-08 11:00:00,
2013-04-08 07:06:00,53.0,45.6,30.04,SW,222,1.0,1.0,76,0.00,,,0.00,Wunderground v.1.15,2013-04-08 11:06:00,
2013-04-08 07:11:00,52.9,45.5,30.04,SW,222,0.0,0.0,76,0.00,,,0.00,Wunderground v.1.15,2013-04-08 11:11:00,
2013-04-08 07:17:00,52.9,45.5,30.04,SW,222,0.0,0.0,76,0.00,,,0.00,Wunderground v.1.15,2013-04-08 11:17:00,
2013-04-08 07:22:00,52.9,45.5,30.05,SW,222,0.0,0.0,76,0.00,,,0.00,Wunderground v.1.15,2013-04-08 11:22:00,
2013-04-08 07:28:00,53.0,45.6,30.05,SW,222,0.0,0.0,76,0.00,,,0.00,Wunderground v.1.15,2013-04-08 11:28:00,
2013-04-08 07:34:00,53.2,45.5,30.05,SW,222,0.0,1.0,75,0.00,,,0.00,Wunderground v.1.15,2013-04-08 11:34:00,
2013-04-08 07:39:00,53.5,46.1,30.05,SW,222,0.0,2.0,76,0.00,,,0.00,Wunderground v.1.15,2013-04-08 11:39:00,
2013-04-08 07:44:00,54.0,47.0,30.05,SW,222,0.0,1.0,77,0.00,,,0.00,Wunderground v.1.15,2013-04-08 11:44:00,
2013-04-08 07:49:00,54.5,47.8,30.05,SW,222,1.0,2.0,78,0.00,,,0.00,Wunderground v.1.15,2013-04-08 11:49:00,
2013-04-08 07:55:00,54.8,48.1,30.06,SW,222,1.0,1.0,78,0.00,,,0.00,Wunderground v.1.15,2013-04-08 11:55:00,
2013-04-08 08:01:00,55.1,48.0,30.06,SW,222,1.0,2.0,77,0.00,,,0.00,Wunderground v.1.15,2013-04-08 12:01:00,
2013-04-08 08:06:00,55.4,48.0,30.06,SW,222,1.0,3.0,76,0.00,,,0.00,Wunderground v.1.15,2013-04-08 12:06:00,
2013-04-08 08:12:00,55.8,48.0,30.06,SW,222,1.0,2.0,75,0.00,,,0.00,Wunderground v.1.15,2013-04-08 12:12:00,
2013-04-08 08:17:00,56.2,47.7,30.06,West,270,1.0,2.0,73,0.00,,,0.00,Wunderground v.1.15,2013-04-08 12:17:00,
2013-04-08 08:22:00,56.8,48.2,30.06,SE,126,1.0,3.0,73,0.00,,,0.00,Wunderground v.1.15,2013-04-08 12:22:00,
2013-04-08 08:28:00,56.9,48.3,30.06,SE,128,1.0,3.0,73,0.00,,,0.00,Wunderground v.1.15,2013-04-08 12:28:00,
2013-04-08 08:33:00,56.8,48.2,30.06,SE,128,2.0,2.0,73,0.00,,,0.00,Wunderground v.1.15,2013-04-08 12:33:00,
2013-04-08 08:39:00,56.9,48.3,30.06,SE,128,2.0,4.0,73,0.00,,,0.00,Wunderground v.1.15,2013-04-08 12:39:00,
2013-04-08 08:44:00,56.9,48.7,30.05,SE,132,2.0,2.0,74,0.00,,,0.00,Wunderground v.1.15,2013-04-08 12:44:00,
2013-04-08 08:49:00,56.8,48.6,30.06,SSE,151,2.0,4.0,74,0.00,,,0.00,Wunderground v.1.15,2013-04-08 12:49:00,
2013-04-08 08:55:00,57.0,48.8,30.06,SSE,151,1.0,2.0,74,0.00,,,0.00,Wunderground v.1.15,2013-04-08 12:55:00,
2013-04-08 09:00:00,57.3,48.7,30.06,SE,124,1.0,1.0,73,0.00,,,0.00,Wunderground v.1.15,2013-04-08 13:00:00,
2013-04-08 09:06:00,57.5,48.9,30.06,SE,125,2.0,3.0,73,0.00,,,0.00,Wunderground v.1.15,2013-04-08 13:06:00,
2013-04-08 09:12:00,57.6,49.0,30.06,SE,125,2.0,3.0,73,0.00,,,0.00,Wunderground v.1.15,2013-04-08 13:12:00,
2013-04-08 09:17:00,58.0,49.4,30.06,ENE,70,1.0,4.0,73,0.00,,,0.00,Wunderground v.1.15,2013-04-08 13:17:00,
2013-04-08 09:23:00,57.6,49.0,30.06,ESE,121,2.0,2.0,73,0.00,,,0.00,Wunderground v.1.15,2013-04-08 13:23:00,
2013-04-08 09:29:00,57.6,49.0,30.06,SE,132,2.0,3.0,73,0.00,,,0.00,Wunderground v.1.15,2013-04-08 13:29:00,
2013-04-08 09:35:00,57.7,49.1,30.06,SE,132,3.0,4.0,73,0.00,,,0.00,Wunderground v.1.15,2013-04-08 13:35:00,
2013-04-08 09:41:00,57.6,49.4,30.06,SE,135,2.0,2.0,74,0.00,,,0.00,Wunderground v.1.15,2013-04-08 13:41:00,
2013-04-08 09:47:00,57.7,49.1,30.06,SE,136,2.0,4.0,73,0.00,,,0.00,Wunderground v.1.15,2013-04-08 13:47:00,
2013-04-08 09:52:00,58.0,49.8,30.06,SSE,151,2.0,2.0,74,0.00,,,0.00,Wunderground v.1.15,2013-04-08 13:52:00,
2013-04-08 09:57:00,58.1,49.5,30.06,SE,126,2.0,4.0,73,0.00,,,0.00,Wunderground v.1.15,2013-04-08 13:57:00,
2013-04-08 10:03:00,58.1,49.9,30.06,SE,136,2.0,3.0,74,0.00,,,0.00,Wunderground v.1.15,2013-04-08 14:03:00,
2013-04-08 10:08:00,58.2,50.0,30.06,SSE,148,2.0,3.0,74,0.00,,,0.00,Wunderground v.1.15,2013-04-08 14:08:00,
2013-04-08 10:13:00,58.5,49.9,30.06,SE,142,2.0,3.0,73,0.00,,,0.00,Wunderground v.1.15,2013-04-08 14:13:00,
2013-04-08 10:19:00,58.7,50.1,30.07,SE,142,1.0,3.0,73,0.00,,,0.00,Wunderground v.1.15,2013-04-08 14:19:00,
2013-04-08 10:24:00,58.9,49.9,30.07,SE,142,1.0,3.0,72,0.00,,,0.00,Wunderground v.1.15,2013-04-08 14:24:00,
2013-04-08 10:29:00,58.9,49.9,30.07,SE,142,2.0,3.0,72,0.00,,,0.00,Wunderground v.1.15,2013-04-08 14:29:00,
2013-04-08 10:35:00,58.9,49.9,30.07,SSE,149,2.0,4.0,72,0.00,,,0.00,Wunderground v.1.15,2013-04-08 14:35:00,
2013-04-08 10:40:00,58.9,50.3,30.07,SSE,163,2.0,3.0,73,0.00,,,0.00,Wunderground v.1.15,2013-04-08 14:40:00,
2013-04-08 10:46:00,59.3,50.3,30.07,SSE,153,3.0,4.0,72,0.00,,,0.00,Wunderground v.1.15,2013-04-08 14:46:00,
2013-04-08 10:51:00,59.8,51.1,30.07,SSE,153,2.0,3.0,73,0.00,,,0.00,Wunderground v.1.15,2013-04-08 14:51:00,
2013-04-08 10:57:00,60.4,51.3,30.07,South,174,2.0,3.0,72,0.00,,,0.00,Wunderground v.1.15,2013-04-08 14:57:00,
2013-04-08 11:02:00,60.8,51.3,30.07,South,174,2.0,3.0,71,0.00,,,0.00,Wunderground v.1.15,2013-04-08 15:02:00,
2013-04-08 11:08:00,61.2,50.9,30.07,SE,131,3.0,3.0,69,0.00,,,0.00,Wunderground v.1.15,2013-04-08 15:08:00,
2013-04-08 11:13:00,61.3,50.6,30.07,SSE,166,3.0,4.0,68,0.00,,,0.00,Wunderground v.1.15,2013-04-08 15:13:00,
2013-04-08 11:19:00,61.4,50.7,30.07,SE,146,3.0,5.0,68,0.00,,,0.00,Wunderground v.1.15,2013-04-08 15:19:00,
2013-04-08 11:25:00,61.6,51.3,30.07,SSE,150,3.0,4.0,69,0.00,,,0.00,Wunderground v.1.15,2013-04-08 15:25:00,
2013-04-08 11:31:00,62.1,51.4,30.07,SE,142,3.0,5.0,68,0.00,,,0.00,Wunderground v.1.15,2013-04-08 15:31:00,
2013-04-08 11:36:00,62.2,51.1,30.07,SSE,153,3.0,5.0,67,0.00,,,0.00,Wunderground v.1.15,2013-04-08 15:36:00,
2013-04-08 11:42:00,62.3,50.4,30.07,SE,140,3.0,4.0,65,0.00,,,0.00,Wunderground v.1.15,2013-04-08 15:42:00,
2013-04-08 11:47:00,62.6,50.7,30.07,SE,140,3.0,5.0,65,0.00,,,0.00,Wunderground v.1.15,2013-04-08 15:47:00,
2013-04-08 11:52:00,62.9,50.5,30.07,SSW,193,3.0,5.0,64,0.00,,,0.00,Wunderground v.1.15,2013-04-08 15:52:00,
2013-04-08 11:58:00,63.8,50.5,30.07,SSE,148,3.0,6.0,62,0.00,,,0.00,Wunderground v.1.15,2013-04-08 15:58:00,
2013-04-08 12:04:00,64.2,50.0,30.07,SE,132,3.0,6.0,60,0.00,,,0.00,Wunderground v.1.15,2013-04-08 16:04:00,
2013-04-08 12:10:00,64.7,50.5,30.06,SSE,147,3.0,6.0,60,0.00,,,0.00,Wunderground v.1.15,2013-04-08 16:10:00,
2013-04-08 12:15:00,65.0,50.3,30.06,SSE,152,3.0,6.0,59,0.00,,,0.00,Wunderground v.1.15,2013-04-08 16:15:00,
2013-04-08 12:21:00,65.3,50.1,30.06,SSE,157,3.0,6.0,58,0.00,,,0.00,Wunderground v.1.15,2013-04-08 16:21:00,
2013-04-08 12:26:00,65.5,50.3,30.06,SE,139,3.0,6.0,58,0.00,,,0.00,Wunderground v.1.15,2013-04-08 16:26:00,
2013-04-08 12:32:00,66.1,50.4,30.06,SE,140,3.0,6.0,57,0.00,,,0.00,Wunderground v.1.15,2013-04-08 16:32:00,
2013-04-08 12:37:00,66.8,51.1,30.06,SE,141,3.0,6.0,57,0.00,,,0.00,Wunderground v.1.15,2013-04-08 16:37:00,
2013-04-08 12:42:00,67.3,51.1,30.06,South,169,3.0,6.0,56,0.00,,,0.00,Wunderground v.1.15,2013-04-08 16:42:00,
2013-04-08 12:48:00,67.5,51.2,30.05,SSE,153,4.0,6.0,56,0.00,,,0.00,Wunderground v.1.15,2013-04-08 16:48:00,
2013-04-08 12:54:00,67.7,50.5,30.05,South,189,3.0,7.0,54,0.00,,,0.00,Wunderground v.1.15,2013-04-08 16:54:00,
2013-04-08 13:00:00,67.6,50.9,30.05,South,182,4.0,4.0,55,0.00,,,0.00,Wunderground v.1.15,2013-04-08 17:00:00,
2013-04-08 13:05:00,67.7,50.5,30.05,South,171,3.0,7.0,54,0.00,,,0.00,Wunderground v.1.15,2013-04-08 17:05:00,
2013-04-08 13:11:00,68.0,50.2,30.05,SSE,150,3.0,7.0,53,0.00,,,0.00,Wunderground v.1.15,2013-04-08 17:11:00,
2013-04-08 13:16:00,67.9,50.1,30.05,SSE,156,4.0,7.0,53,0.00,,,0.00,Wunderground v.1.15,2013-04-08 17:16:00,
2013-04-08 13:21:00,68.2,50.9,30.04,SSE,153,4.0,7.0,54,0.00,,,0.00,Wunderground v.1.15,2013-04-08 17:21:00,
2013-04-08 13:27:00,68.8,51.0,30.04,SE,130,3.0,7.0,53,0.00,,,0.00,Wunderground v.1.15,2013-04-08 17:27:00,
2013-04-08 13:32:00,69.4,51.5,30.04,South,173,3.0,7.0,53,0.00,,,0.00,Wunderground v.1.15,2013-04-08 17:32:00,
2013-04-08 13:38:00,69.8,51.4,30.03,South,176,3.0,7.0,52,0.00,,,0.00,Wunderground v.1.15,2013-04-08 17:38:00,
2013-04-08 13:44:00,70.4,51.9,30.03,SE,128,4.0,7.0,52,0.00,,,0.00,Wunderground v.1.15,2013-04-08 17:44:00,
2013-04-08 13:50:00,70.5,52.0,30.03,SSE,166,3.0,3.0,52,0.00,,,0.00,Wunderground v.1.15,2013-04-08 17:50:00,
2013-04-08 13:56:00,70.9,51.9,30.03,SSE,163,3.0,7.0,51,0.00,,,0.00,Wunderground v.1.15,2013-04-08 17:56:00,
2013-04-08 14:01:00,71.2,51.6,30.02,ESE,117,3.0,7.0,50,0.00,,,0.00,Wunderground v.1.15,2013-04-08 18:01:00,
2013-04-08 14:07:00,71.7,52.1,30.02,SSE,166,3.0,7.0,50,0.00,,,0.00,Wunderground v.1.15,2013-04-08 18:07:00,
2013-04-08 14:13:00,72.1,52.4,30.02,South,178,3.0,6.0,50,0.00,,,0.00,Wunderground v.1.15,2013-04-08 18:13:00,
2013-04-08 14:18:00,72.0,51.8,30.02,SSE,168,4.0,9.0,49,0.00,,,0.00,Wunderground v.1.15,2013-04-08 18:18:00,
2013-04-08 14:23:00,71.9,51.7,30.02,South,175,4.0,6.0,49,0.00,,,0.00,Wunderground v.1.15,2013-04-08 18:23:00,
2013-04-08 14:29:00,71.8,51.6,30.01,South,186,4.0,7.0,49,0.00,,,0.00,Wunderground v.1.15,2013-04-08 18:29:00,
2013-04-08 14:35:00,71.6,51.4,30.01,South,174,4.0,6.0,49,0.00,,,0.00,Wunderground v.1.15,2013-04-08 18:35:00,
2013-04-08 14:40:00,71.4,51.8,30.01,SSE,161,4.0,6.0,50,0.00,,,0.00,Wunderground v.1.15,2013-04-08 18:40:00,
2013-04-08 14:45:00,71.1,52.0,30.01,South,178,4.0,7.0,51,0.00,,,0.00,Wunderground v.1.15,2013-04-08 18:45:00,
2013-04-08 14:51:00,70.7,52.2,30.01,South,184,5.0,6.0,52,0.00,,,0.00,Wunderground v.1.15,2013-04-08 18:51:00,
2013-04-08 14:56:00,70.6,52.6,30.00,South,180,5.0,6.0,53,0.00,,,0.00,Wunderground v.1.15,2013-04-08 18:56:00,
2013-04-08 15:01:00,70.5,52.5,30.00,SSW,203,4.0,7.0,53,0.00,,,0.00,Wunderground v.1.15,2013-04-08 19:01:00,
2013-04-08 15:07:00,70.3,52.9,30.00,SE,143,5.0,7.0,54,0.00,,,0.00,Wunderground v.1.15,2013-04-08 19:07:00,
2013-04-08 15:13:00,70.0,52.1,30.00,South,182,5.0,8.0,53,0.00,,,0.00,Wunderground v.1.15,2013-04-08 19:13:00,
2013-04-08 15:18:00,69.8,52.9,30.00,South,172,5.0,8.0,55,0.00,,,0.00,Wunderground v.1.15,2013-04-08 19:18:00,
2013-04-08 15:24:00,69.4,53.0,30.00,South,171,5.0,7.0,56,0.00,,,0.00,Wunderground v.1.15,2013-04-08 19:24:00,
2013-04-08 15:30:00,68.8,53.4,30.00,SSE,162,6.0,7.0,58,0.00,,,0.00,Wunderground v.1.15,2013-04-08 19:30:00,
2013-04-08 15:36:00,68.4,53.5,30.00,SSE,163,6.0,7.0,59,0.00,,,0.00,Wunderground v.1.15,2013-04-08 19:36:00,
2013-04-08 15:42:00,68.1,53.7,30.00,South,171,6.0,7.0,60,0.00,,,0.00,Wunderground v.1.15,2013-04-08 19:42:00,
2013-04-08 15:47:00,67.9,53.5,29.99,SSW,193,6.0,9.0,60,0.00,,,0.00,Wunderground v.1.15,2013-04-08 19:47:00,
2013-04-08 15:53:00,68.0,53.1,29.99,SW,225,6.0,11.0,59,0.00,,,0.00,Wunderground v.1.15,2013-04-08 19:53:00,
2013-04-08 15:58:00,68.2,53.8,29.99,SSE,161,6.0,11.0,60,0.00,,,0.00,Wunderground v.1.15,2013-04-08 19:58:00,
2013-04-08 16:03:00,67.9,53.5,29.99,SSE,149,7.0,12.0,60,0.00,,,0.00,Wunderground v.1.15,2013-04-08 20:03:00,
2013-04-08 16:09:00,67.4,53.5,29.98,South,182,7.0,12.0,61,0.00,,,0.00,Wunderground v.1.15,2013-04-08 20:09:00,
2013-04-08 16:15:00,67.0,53.1,29.98,SSW,193,6.0,12.0,61,0.00,,,0.00,Wunderground v.1.15,2013-04-08 20:15:00,
2013-04-08 16:20:00,66.4,53.4,29.98,South,175,7.0,12.0,63,0.00,,,0.00,Wunderground v.1.15,2013-04-08 20:20:00,
2013-04-08 16:26:00,65.5,53.4,29.97,SSE,157,6.0,12.0,65,0.00,,,0.00,Wunderground v.1.15,2013-04-08 20:26:00,
2013-04-08 16:31:00,64.2,53.4,29.97,South,184,7.0,12.0,68,0.00,,,0.00,Wunderground v.1.15,2013-04-08 20:31:00,
2013-04-08 16:36:00,63.5,53.1,29.97,SSE,163,6.0,12.0,69,0.00,,,0.00,Wunderground v.1.15,2013-04-08 20:36:00,
2013-04-08 16:41:00,63.0,53.1,29.97,SSE,163,6.0,12.0,70,0.00,,,0.00,Wunderground v.1.15,2013-04-08 20:41:00,
2013-04-08 16:47:00,63.0,53.8,29.97,South,189,6.0,12.0,72,0.00,,,0.00,Wunderground v.1.15,2013-04-08 20:47:00,
2013-04-08 16:53:00,63.3,53.7,29.97,SSW,198,7.0,12.0,71,0.00,,,0.00,Wunderground v.1.15,2013-04-08 20:53:00,
2013-04-08 16:59:00,64.1,53.7,29.97,SSW,193,7.0,12.0,69,0.00,,,0.00,Wunderground v.1.15,2013-04-08 20:59:00,
2013-04-08 17:05:00,65.1,54.3,29.97,South,177,7.0,12.0,68,0.00,,,0.00,Wunderground v.1.15,2013-04-08 21:05:00,
2013-04-08 17:10:00,65.9,54.2,29.96,South,187,7.0,10.0,66,0.00,,,0.00,Wunderground v.1.15,2013-04-08 21:10:00,
2013-04-08 17:16:00,66.2,54.5,29.96,SSE,155,7.0,10.0,66,0.00,,,0.00,Wunderground v.1.15,2013-04-08 21:16:00,
2013-04-08 17:21:00,66.0,54.3,29.96,South,180,8.0,8.0,66,0.00,,,0.00,Wunderground v.1.15,2013-04-08 21:21:00,
2013-04-08 17:26:00,65.3,54.1,29.96,SSW,203,7.0,10.0,67,0.00,,,0.00,Wunderground v.1.15,2013-04-08 21:26:00,
2013-04-08 17:32:00,64.5,53.7,29.96,SSW,198,7.0,13.0,68,0.00,,,0.00,Wunderground v.1.15,2013-04-08 21:32:00,
2013-04-08 17:37:00,63.9,53.9,29.96,SSW,198,7.0,13.0,70,0.00,,,0.00,Wunderground v.1.15,2013-04-08 21:37:00,
2013-04-08 17:43:00,63.8,54.2,29.97,South,187,7.0,10.0,71,0.00,,,0.00,Wunderground v.1.15,2013-04-08 21:43:00,
2013-04-08 17:48:00,64.0,54.0,29.97,WSW,255,7.0,11.0,70,0.00,,,0.00,Wunderground v.1.15,2013-04-08 21:48:00,
2013-04-08 17:54:00,64.4,54.4,29.97,SSW,193,7.0,10.0,70,0.00,,,0.00,Wunderground v.1.15,2013-04-08 21:54:00,
2013-04-08 17:59:00,64.6,54.6,29.97,SE,134,6.0,10.0,70,0.00,,,0.00,Wunderground v.1.15,2013-04-08 21:59:00,
2013-04-08 18:05:00,64.8,54.4,29.97,South,177,6.0,10.0,69,0.00,,,0.00,Wunderground v.1.15,2013-04-08 22:05:00,
2013-04-08 18:11:00,64.9,54.5,29.96,South,189,7.0,8.0,69,0.00,,,0.00,Wunderground v.1.15,2013-04-08 22:11:00,
2013-04-08 18:16:00,64.3,53.9,29.96,South,178,7.0,11.0,69,0.00,,,0.00,Wunderground v.1.15,2013-04-08 22:16:00,
2013-04-08 18:22:00,63.4,53.4,29.96,SSE,156,6.0,10.0,70,0.00,,,0.00,Wunderground v.1.15,2013-04-08 22:22:00,
2013-04-08 18:27:00,62.6,53.1,29.96,SSE,166,6.0,10.0,71,0.00,,,0.00,Wunderground v.1.15,2013-04-08 22:27:00,
2013-04-08 18:32:00,61.9,53.1,29.96,South,186,6.0,9.0,73,0.00,,,0.00,Wunderground v.1.15,2013-04-08 22:32:00,
2013-04-08 18:37:00,61.3,52.9,29.96,South,185,5.0,9.0,74,0.00,,,0.00,Wunderground v.1.15,2013-04-08 22:37:00,
2013-04-08 18:43:00,61.0,53.0,29.96,SSW,193,5.0,9.0,75,0.00,,,0.00,Wunderground v.1.15,2013-04-08 22:43:00,
2013-04-08 18:49:00,60.7,53.1,29.96,South,177,6.0,9.0,76,0.00,,,0.00,Wunderground v.1.15,2013-04-08 22:49:00,
2013-04-08 18:55:00,60.7,53.1,29.96,South,173,5.0,9.0,76,0.00,,,0.00,Wunderground v.1.15,2013-04-08 22:55:00,
2013-04-08 19:00:00,60.5,53.3,29.96,South,177,5.0,5.0,77,0.00,,,0.00,Wunderground v.1.15,2013-04-08 23:00:00,
2013-04-08 19:05:00,60.4,53.2,29.96,SSW,193,5.0,8.0,77,0.00,,,0.00,Wunderground v.1.15,2013-04-08 23:05:00,
2013-04-08 19:11:00,60.4,53.2,29.96,South,188,5.0,8.0,77,0.00,,,0.00,Wunderground v.1.15,2013-04-08 23:11:00,
2013-04-08 19:17:00,60.2,53.0,29.96,SSW,210,5.0,8.0,77,0.00,,,0.00,Wunderground v.1.15,2013-04-08 23:17:00,
2013-04-08 19:22:00,60.0,52.8,29.96,South,184,5.0,8.0,77,0.00,,,0.00,Wunderground v.1.15,2013-04-08 23:22:00,
2013-04-08 19:28:00,59.9,53.0,29.96,South,189,4.0,8.0,78,0.00,,,0.00,Wunderground v.1.15,2013-04-08 23:28:00,
2013-04-08 19:33:00,59.9,53.0,29.96,South,186,4.0,8.0,78,0.00,,,0.00,Wunderground v.1.15,2013-04-08 23:33:00,
2013-04-08 19:39:00,59.9,53.0,29.96,SSE,159,4.0,9.0,78,0.00,,,0.00,Wunderground v.1.15,2013-04-08 23:39:00,
2013-04-08 19:45:00,60.0,53.1,29.96,South,175,5.0,8.0,78,0.00,,,0.00,Wunderground v.1.15,2013-04-08 23:45:00,
2013-04-08 19:51:00,60.2,53.0,29.96,South,173,5.0,8.0,77,0.00,,,0.00,Wunderground v.1.15,2013-04-08 23:51:00,
2013-04-08 19:56:00,60.2,53.0,29.96,South,186,5.0,8.0,77,0.00,,,0.00,Wunderground v.1.15,2013-04-08 23:56:00,
2013-04-08 20:01:00,60.1,52.9,29.96,SSW,198,5.0,8.0,77,0.00,,,0.00,Wunderground v.1.15,2013-04-09 00:01:00,
2013-04-08 20:07:00,59.8,52.9,29.96,South,176,5.0,8.0,78,0.00,,,0.00,Wunderground v.1.15,2013-04-09 00:07:00,
2013-04-08 20:12:00,59.5,52.6,29.96,SSE,155,5.0,8.0,78,0.00,,,0.00,Wunderground v.1.15,2013-04-09 00:12:00,
2013-04-08 20:18:00,59.1,52.2,29.97,SSW,193,6.0,8.0,78,0.00,,,0.00,Wunderground v.1.15,2013-04-09 00:18:00,
2013-04-08 20:24:00,58.6,52.1,29.97,SSW,203,6.0,8.0,79,0.00,,,0.00,Wunderground v.1.15,2013-04-09 00:24:00,
2013-04-08 20:29:00,58.2,51.7,29.97,South,182,6.0,8.0,79,0.00,,,0.00,Wunderground v.1.15,2013-04-09 00:29:00,
2013-04-08 20:35:00,57.6,51.5,29.97,South,169,5.0,8.0,80,0.00,,,0.00,Wunderground v.1.15,2013-04-09 00:35:00,
2013-04-08 20:40:00,57.2,51.1,29.97,South,175,4.0,8.0,80,0.00,,,0.00,Wunderground v.1.15,2013-04-09 00:40:00,
2013-04-08 20:46:00,56.9,51.1,29.97,South,188,4.0,8.0,81,0.00,,,0.00,Wunderground v.1.15,2013-04-09 00:46:00,
2013-04-08 20:52:00,56.7,51.3,29.97,SSW,209,4.0,8.0,82,0.00,,,0.00,Wunderground v.1.15,2013-04-09 00:52:00,
2013-04-08 20:57:00,56.4,51.0,29.97,South,184,4.0,8.0,82,0.00,,,0.00,Wunderground v.1.15,2013-04-09 00:57:00,
2013-04-08 21:03:00,56.1,50.7,29.98,SSW,193,4.0,7.0,82,0.00,,,0.00,Wunderground v.1.15,2013-04-09 01:03:00,
2013-04-08 21:08:00,55.8,50.7,29.97,South,184,4.0,7.0,83,0.00,,,0.00,Wunderground v.1.15,2013-04-09 01:08:00,
2013-04-08 21:14:00,55.5,50.4,29.98,SE,141,4.0,7.0,83,0.00,,,0.00,Wunderground v.1.15,2013-04-09 01:14:00,
2013-04-08 21:19:00,55.4,50.6,29.97,SSW,209,4.0,7.0,84,0.00,,,0.00,Wunderground v.1.15,2013-04-09 01:19:00,
2013-04-08 21:24:00,55.2,50.4,29.97,South,185,4.0,7.0,84,0.00,,,0.00,Wunderground v.1.15,2013-04-09 01:24:00,
2013-04-08 21:30:00,55.1,50.7,29.97,SSE,168,3.0,7.0,85,0.00,,,0.00,Wunderground v.1.15,2013-04-09 01:30:00,
2013-04-08 21:35:00,55.1,50.7,29.98,SSW,203,4.0,7.0,85,0.00,,,0.00,Wunderground v.1.15,2013-04-09 01:35:00,
2013-04-08 21:40:00,55.0,50.6,29.98,SSE,151,4.0,7.0,85,0.00,,,0.00,Wunderground v.1.15,2013-04-09 01:40:00,
2013-04-08 21:46:00,55.0,50.6,29.98,South,178,4.0,7.0,85,0.00,,,0.00,Wunderground v.1.15,2013-04-09 01:46:00,
2013-04-08 21:52:00,55.1,50.7,29.98,SSE,164,3.0,7.0,85,0.00,,,0.00,Wunderground v.1.15,2013-04-09 01:52:00,
2013-04-08 21:58:00,55.2,50.8,29.98,SSW,193,3.0,7.0,85,0.00,,,0.00,Wunderground v.1.15,2013-04-09 01:58:00,
2013-04-08 22:03:00,55.3,50.9,29.98,South,180,3.0,7.0,85,0.00,,,0.00,Wunderground v.1.15,2013-04-09 02:03:00,
2013-04-08 22:09:00,55.4,51.0,29.99,South,178,4.0,7.0,85,0.00,,,0.00,Wunderground v.1.15,2013-04-09 02:09:00,
2013-04-08 22:14:00,55.3,50.5,29.98,SSE,164,4.0,6.0,84,0.00,,,0.00,Wunderground v.1.15,2013-04-09 02:14:00,
2013-04-08 22:20:00,55.3,50.5,29.98,South,181,5.0,5.0,84,0.00,,,0.00,Wunderground v.1.15,2013-04-09 02:20:00,
2013-04-08 22:26:00,55.2,50.4,29.98,South,174,5.0,9.0,84,0.00,,,0.00,Wunderground v.1.15,2013-04-09 02:26:00,
2013-04-08 22:31:00,55.1,50.7,29.98,SSW,193,5.0,6.0,85,0.00,,,0.00,Wunderground v.1.15,2013-04-09 02:31:00,
2013-04-08 22:36:00,55.0,50.6,29.98,SSW,193,6.0,7.0,85,0.00,,,0.00,Wunderground v.1.15,2013-04-09 02:36:00,
2013-04-08 22:42:00,55.0,50.6,29.98,SSE,165,6.0,8.0,85,0.00,,,0.00,Wunderground v.1.15,2013-04-09 02:42:00,
2013-04-08 22:48:00,55.0,50.9,29.98,SSE,163,5.0,9.0,86,0.00,,,0.00,Wunderground v.1.15,2013-04-09 02:48:00,
2013-04-08 22:54:00,55.0,50.9,29.98,South,182,6.0,6.0,86,0.00,,,0.00,Wunderground v.1.15,2013-04-09 02:54:00,
2013-04-08 22:59:00,55.0,50.9,29.98,South,187,5.0,6.0,86,0.00,,,0.00,Wunderground v.1.15,2013-04-09 02:59:00,
2013-04-08 23:04:00,55.0,50.9,29.98,SSW,203,5.0,12.0,86,0.00,,,0.00,Wunderground v.1.15,2013-04-09 03:04:00,
2013-04-08 23:10:00,55.0,50.9,29.98,South,185,5.0,12.0,86,0.00,,,0.00,Wunderground v.1.15,2013-04-09 03:10:00,
2013-04-08 23:16:00,55.0,50.9,29.98,SSW,210,5.0,12.0,86,0.00,,,0.00,Wunderground v.1.15,2013-04-09 03:16:00,
2013-04-08 23:21:00,55.0,50.9,29.98,SSW,198,4.0,12.0,86,0.00,,,0.00,Wunderground v.1.15,2013-04-09 03:21:00,
2013-04-08 23:27:00,55.0,50.9,29.98,South,176,4.0,12.0,86,0.00,,,0.00,Wunderground v.1.15,2013-04-09 03:27:00,
2013-04-08 23:32:00,55.0,50.6,29.98,SSE,158,4.0,12.0,85,0.00,,,0.00,Wunderground v.1.15,2013-04-09 03:32:00,
2013-04-08 23:37:00,54.8,50.4,29.97,South,187,5.0,12.0,85,0.00,,,0.00,Wunderground v.1.15,2013-04-09 03:37:00,
2013-04-08 23:42:00,54.8,50.4,29.97,South,182,4.0,12.0,85,0.00,,,0.00,Wunderground v.1.15,2013-04-09 03:42:00,
2013-04-08 23:47:00,54.6,50.2,29.97,South,183,4.0,12.0,85,0.00,,,0.00,Wunderground v.1.15,2013-04-09 03:47:00,
2013-04-08 23:53:00,54.5,50.4,29.97,SSE,157,4.0,12.0,86,0.00,,,0.00,Wunderground v.1.15,2013-04-09 03:53:00,
2013-04-08 23:58:00,54.4,50.3,29.97,South,171,4.0,12.0,86,0.00,,,0.00,Wunderground v.1.15,2013-04-09 03:58:00,